Greenland, AR

8:29 AM CST on December 03, 2016 (GMT -0600)
Drake

Weather History for KFYV - May, 2013

Change the Weather History Date:

Friday, May 3, 2013

  Actual Average Record
Temperature  
Mean Temperature 40 °F 62 °F  
Max Temperature 47 °F 73 °F 88 °F (1952)
Min Temperature 32 °F 50 °F 31 °F (2005)
Degree Days  
Heating Degree Days 26    
Cooling Degree Days 0 1  
Month to date cooling degree days 1 3  
Year to date cooling degree days 30 31  
Moisture  
Dew Point 33 °F    
Average Humidity 75    
Maximum Humidity 100    
Minimum Humidity 49    
Precipitation  
Precipitation 0.21 in 0.20 in 0.21 in (2013)
Month to date precipitation 0.75 0.59  
Year to date precipitation 16.61 14.76  
Sea Level Pressure  
Sea Level Pressure 30.12 in    
Wind  
Wind Speed 11 mph (NNW)    
Max Wind Speed 23 mph    
Max Gust Speed 30 mph    
Visibility 7 miles    
Events Rain , Snow    
T = Trace of Precipitation, MM = Missing Value Source: NWS Daily Summary

Daily Weather History Graph

Daily Weather History Graph

Search for Another Location

Airport or City:

Trip Planner

Search our weather history database for the weather conditions in past years. The results will help you decide how hot, cold, wet, or windy it might be!

Date:

Astronomy

May. 03, 2013 Rise Set
Actual Time 6:21 AM CDT 8:05 PM CDT
Civil Twilight 5:54 AM CDT 8:33 PM CDT
Nautical Twilight 5:20 AM CDT 9:07 PM CDT
Astronomical Twilight 4:45 AM CDT 9:42 PM CDT
Moon 2:34 AM CDT 2:12 PM CDT
Length of Visible Light 14h 39m
Length of Day
13h 44m
Last Quarter, 37% of the Moon is Illuminated
May 3
Last Quarter
May 9
New
May 17
First Quarter
May 24
Full
May 31
Last Quarter

Hourly Weather History & Observations

Time (CDT) Temp. Windchill Dew Point Humidity Pressure Visibility Wind Dir Wind Speed Gust Speed Precip Events Conditions
12:45 AM 33.8 °F 26.4 °F 33.8 °F 100% 30.21 in 10.0 mi North 9.2 mph 23.0 mph 0.00 in   Overcast
12:53 AM 34.0 °F 24.2 °F 33.1 °F 96% 30.24 in 10.0 mi NNW 15.0 mph 20.7 mph 0.00 in   Overcast
1:12 AM 33.8 °F 24.8 °F 33.8 °F 100% 30.23 in 10.0 mi NNW 12.7 mph 20.7 mph N/A   Overcast
1:44 AM 33.8 °F 24.8 °F 33.8 °F 100% 30.21 in 8.0 mi NNW 12.7 mph 20.7 mph 0.01 in Rain Light Rain
1:53 AM 33.1 °F 23.0 °F 33.1 °F 100% 30.21 in 6.0 mi NNW 15.0 mph 20.7 mph 0.02 in Rain Rain
2:26 AM 32.0 °F 24.2 °F 32.0 °F 100% 30.18 in 4.0 mi North 9.2 mph - 0.02 in Snow Light Snow
2:51 AM 32.0 °F 24.2 °F 32.0 °F 100% 30.17 in 2.5 mi North 9.2 mph - 0.04 in Snow Light Snow
2:53 AM 32.0 °F 24.2 °F 32.0 °F 100% 30.19 in 2.5 mi North 9.2 mph - 0.04 in Snow Light Snow
3:03 AM 33.8 °F 27.0 °F 32.0 °F 93% 30.18 in 3.0 mi North 8.1 mph - 0.00 in Snow Light Snow
3:06 AM 33.8 °F 28.6 °F 32.0 °F 93% 30.18 in 2.5 mi Variable 5.8 mph - 0.01 in Snow Light Snow
3:18 AM 32.0 °F 25.6 °F 32.0 °F 100% 30.18 in 1.8 mi NNW 6.9 mph - 0.02 in Snow Light Snow
3:25 AM 32.0 °F 23.6 °F 32.0 °F 100% 30.18 in 1.8 mi NNW 10.4 mph - 0.03 in Snow Light Snow
3:43 AM 32.0 °F 24.2 °F 32.0 °F 100% 30.16 in 1.0 mi NNW 9.2 mph - 0.06 in Snow Light Snow
3:53 AM 32.0 °F 24.8 °F 32.0 °F 100% 30.18 in 0.8 mi NNW 8.1 mph - 0.07 in Snow Light Snow
4:15 AM 32.0 °F 24.2 °F 32.0 °F 100% 30.15 in 1.2 mi NW 9.2 mph - 0.03 in Snow Light Snow
4:30 AM 32.0 °F 27.5 °F 32.0 °F 100% 30.17 in 2.5 mi NNW 4.6 mph - 0.03 in Snow Light Snow
4:41 AM 32.0 °F 24.2 °F 32.0 °F 100% 30.16 in 4.0 mi NNW 9.2 mph - 0.03 in Snow Light Snow
4:53 AM 32.0 °F 24.8 °F 32.0 °F 100% 30.17 in 5.0 mi NNW 8.1 mph - 0.03 in Snow Light Snow
5:53 AM 33.1 °F 25.5 °F 33.1 °F 100% 30.15 in 10.0 mi NNW 9.2 mph - 0.00 in   Overcast
6:22 AM 33.8 °F 27.0 °F 33.8 °F 100% 30.12 in 10.0 mi North 8.1 mph 18.4 mph 0.00 in Snow Light Snow
6:53 AM 33.1 °F 25.5 °F 33.1 °F 100% 30.15 in 9.0 mi NNW 9.2 mph - 0.01 in Snow Light Snow
7:53 AM 34.0 °F 27.2 °F 33.1 °F 96% 30.14 in 10.0 mi NNW 8.1 mph 16.1 mph 0.00 in   Overcast
8:10 AM 33.8 °F 25.3 °F 33.8 °F 100% 30.12 in 10.0 mi NNW 11.5 mph 17.3 mph N/A   Overcast
8:53 AM 35.1 °F 25.2 °F 34.0 °F 96% 30.13 in 8.0 mi NW 16.1 mph 23.0 mph N/A   Overcast
9:53 AM 36.0 °F 30.3 °F 35.1 °F 97% 30.13 in 10.0 mi NNW 6.9 mph - N/A   Overcast
10:53 AM 37.0 °F 29.3 °F 36.0 °F 96% 30.12 in 5.0 mi NW 11.5 mph - 0.00 in Rain Light Rain
11:53 AM 37.9 °F 31.5 °F 37.0 °F 97% 30.11 in 7.0 mi NW 9.2 mph 19.6 mph 0.01 in Rain Light Rain
12:53 PM 39.9 °F 32.9 °F 39.0 °F 97% 30.09 in 10.0 mi NW 11.5 mph - 0.02 in Rain Light Rain
1:53 PM 43.0 °F 35.7 °F 37.0 °F 80% 30.07 in 10.0 mi NW 15.0 mph 21.9 mph 0.01 in   Overcast
2:53 PM 44.1 °F 36.8 °F 30.9 °F 60% 30.06 in 10.0 mi NW 16.1 mph 25.3 mph N/A   Overcast
3:53 PM 46.0 °F 39.3 °F 30.9 °F 56% 30.04 in 10.0 mi NW 16.1 mph 24.2 mph N/A   Overcast
4:53 PM 46.9 °F - 28.9 °F 50% 30.01 in 10.0 mi NW 18.4 mph 24.2 mph N/A   Overcast
5:53 PM 46.0 °F 38.5 °F 28.9 °F 51% 30.01 in 10.0 mi NW 19.6 mph 28.8 mph N/A   Overcast
6:53 PM 45.0 °F 38.5 °F 30.0 °F 56% 30.01 in 10.0 mi NNW 13.8 mph 24.2 mph N/A   Overcast
7:53 PM 43.0 °F 38.2 °F 30.9 °F 62% 30.01 in 10.0 mi NW 8.1 mph - N/A   Overcast
8:53 PM 41.0 °F 36.4 °F 32.0 °F 70% 30.02 in 10.0 mi NNE 6.9 mph - N/A   Overcast
9:53 PM 41.0 °F 35.2 °F 32.0 °F 70% 30.01 in 10.0 mi North 9.2 mph 18.4 mph N/A   Overcast
10:53 PM 39.9 °F 33.4 °F 33.1 °F 77% 30.00 in 10.0 mi NW 10.4 mph - N/A   Overcast
11:53 PM 39.0 °F 34.0 °F 34.0 °F 82% 29.97 in 10.0 mi WNW 6.9 mph - N/A   Overcast